Location: Brad
(46.1333°N, 22.7833°E)
Time: 15:00:12
(UTC+00:00)

Daily predictions for brighter satellites

Satellite Brightness Start Highest point End
(mag) Time Altitude Azimuth Time Altitude Azimuth Time Altitude Azimuth
BREEZE-M DEB (TANK) 4.3 15:59:54 10° WNW 16:03:16 66° SSW 16:15:20 10° SE
H-2A R/B 4.1 15:59:17 10° SSW 16:03:59 34° W 16:08:50 10° NNW
Meteor PRIRODA 3.5 16:02:22 10° SSE 16:05:54 72° ENE 16:09:28 10° N
Cosmos 1844 Rocket 3.3 16:00:58 10° NNW 16:05:59 33° NE 16:10:57 10° ESE
Cosmos 1461 4.3 16:03:13 10° SSE 16:06:33 23° ESE 16:10:01 10° ENE
Okean O Rocket 3.4 16:05:53 10° E 16:07:38 12° ENE 16:09:23 10° NE
USA 290 3.2 16:05:24 10° SW 16:08:32 48° WNW 16:11:41 10° NNE
Cosmos 1633 4.2 16:07:34 10° ESE 16:09:11 13° E 16:10:49 10° ENE
Cosmos 1408 2.6 16:07:09 10° S 16:10:25 49° E 16:13:45 10° NNE
NOAA 6 4.0 16:07:02 10° SSE 16:12:10 76° ENE 16:17:21 10° N
Cosmos 1328 3.8 16:09:05 10° S 16:13:00 60° E 16:16:55 10° NNE
CZ-4B R/B 4.2 16:10:31 10° ESE 16:14:47 25° ENE 16:19:05 10° N
Lacrosse 5 rocket 2.3 16:14:33 10° NNW 16:17:32 24° NNE 16:20:26 11° ENE
DELTA 2 DEB (DPAF) 4.1 16:13:15 10° NNE 16:17:39 81° ESE 16:22:03 10° SSW
Cosmos 2227 4.3 16:14:21 10° NNW 16:20:10 88° WSW 16:25:56 10° SSE
Cosmos 1844 4.3 16:16:25 10° NNW 16:21:49 38° NE 16:27:09 10° ESE
Cosmos 2278 4.0 16:20:01 10° SSW 16:25:40 72° WNW 16:31:24 10° NNE
SKYMED 2 3.7 16:21:24 10° NNE 16:25:41 53° E 16:29:55 10° S
Cosmos 468 Rocket 4.2 16:21:39 10° NNW 16:26:39 46° ENE 16:31:34 10° SE
Cosmos 2360 Rocket 2.9 16:23:09 10° SSE 16:28:05 32° ESE 16:33:03 10° NE
Cosmos 2219 Rocket 3.7 16:25:40 10° SE 16:28:35 15° E 16:30:33 12° ENE
CZ-4 R/B 2.8 16:26:37 10° ESE 16:29:29 18° ENE 16:32:19 10° NNE
Cosmos 2058 Rocket 4.2 16:26:18 10° NNE 16:29:48 22° ENE 16:33:17 10° ESE
Cosmos 1892 2.7 16:27:39 10° S 16:31:19 57° E 16:35:00 10° NNE
YAOGAN 1 3.2 16:31:06 10° SE 16:34:57 33° ENE 16:38:49 10° N
CZ-4C R/B 3.3 16:31:12 10° NNE 16:34:57 52° E 16:38:30 10° S
Cosmos 2333 Rocket 3.2 16:31:42 10° SSE 16:36:11 25° ESE 16:40:16 12° NE
Cosmos 2278 Rocket 4.1 16:34:30 10° NNE 16:36:17 11° NNE 16:37:48 10° NE
Cosmos 1954 Rocket 4.0 16:31:40 10° S 16:36:51 63° ESE 16:42:00 10° NNE
USA 215 3.6 16:30:36 10° SE 16:37:07 68° SW 16:43:40 10° NW
Cosmos 2322 Rocket 2.3 16:34:36 10° S 16:40:04 58° ESE 16:45:35 10° NNE
RESURS DK-1 3.0 16:36:52 10° NNW 16:40:40 35° NE 16:44:27 10° ESE
Cosmos 1825 2.4 16:38:00 10° SSE 16:41:31 45° E 16:45:04 10° NNE
Cosmos 1763 Rocket 3.4 16:38:54 10° NNW 16:44:07 78° ENE 16:49:13 10° SSE
ATLAS 2AS CENTAUR R/B 2.7 16:37:06 10° NW 16:44:12 86° NE 16:50:50 10° SE
APEX 4.5 16:38:11 10° SSW 16:44:16 75° WNW 16:49:54 10° NNE
Cosmos 1536 Rocket 4.4 16:41:35 10° SSW 16:45:47 51° WNW 16:50:03 10° N
COSMOS 2428 4.5 16:48:57 10° SE 16:50:14 12° ESE 16:50:14 12° ESE
Nadezhda 2 Rocket 4.4 16:45:57 10° N 16:52:07 66° E 16:58:10 10° SSE
Lacrosse 5 1.8 16:47:37 10° SW 16:52:43 82° SE 16:56:36 18° NE
SL-16 R/B 2.3 16:48:56 10° SSW 16:54:36 79° WNW 17:00:19 10° NNE
In-Cosmos 22 Rocket 4.2 16:49:43 10° S 16:55:27 67° E 17:01:15 10° NNE
Gblst 52 Del rocket 4.2 16:50:17 10° WSW 16:55:57 77° NNW 16:59:50 20° ENE
SL-4 R/B 2.7 16:52:56 10° WNW 16:56:10 33° N 16:57:44 23° NE
BlueWalker 3 3.3 16:52:59 10° WNW 16:56:23 28° N 16:58:16 19° NE
Cosmos 841 Rocket 3.9 16:51:37 10° N 16:56:36 41° ENE 17:01:32 10° SE
Cosmos 2228 4.1 16:53:10 10° NNW 16:57:15 48° W 17:01:18 10° SSW
CZ-4B R/B 4.4 16:53:50 10° SSW 16:57:40 39° W 17:01:20 10° NNW
Cosmos 1606 Rocket 3.5 16:54:00 10° N 16:58:21 86° W 17:02:39 10° S
Cosmos 540 Rocket 3.4 16:53:16 10° NNW 16:58:25 67° ENE 17:03:31 10° SSE
IRIDIUM 114 4.3 16:59:01 10° N 17:04:10 56° E 17:09:18 10° SSE
Cosmos 1340 2.9 17:00:57 10° N 17:04:27 40° ENE 17:07:15 14° SE
Cosmos 1980 Rocket 4.3 17:02:57 10° W 17:07:17 22° NW 17:11:39 10° N
Cosmos 1892 Rocket 3.4 17:05:36 10° S 17:09:59 72° E 17:14:23 10° NNE
PAYLOAD B 4.2 17:06:36 10° SSE 17:12:08 87° WSW 17:17:40 10° NNW
IRIDIUM 103 4.2 17:08:08 10° N 17:13:22 68° E 17:18:33 10° SSE
COSMO-SKYMED 1 3.5 17:09:27 10° N 17:13:39 49° WNW 17:17:50 10° SW
MINOTAUR 4 R/B 3.9 17:12:36 28° NNE 17:14:10 58° ESE 17:17:32 10° S
Spot 1 4.4 17:13:31 35° ENE 17:14:10 37° E 17:17:57 10° SSE
Cosmos 2322 4.4 17:13:03 10° SSE 17:17:56 30° ESE 17:18:23 30° E
Cosmos 676 Rocket 4.4 17:15:38 10° SSW 17:20:53 65° WNW 17:26:09 10° NNE
Meteor 1-27 4.2 17:15:07 10° N 17:20:56 81° E 17:26:39 10° SSE
BREEZE-M DEB (TANK) 3.1 17:19:47 10° W 17:23:16 86° S 17:27:08 28° E
ATLAS CENTAUR R/B 4.0 17:21:08 10° WNW 17:24:12 17° NNW 17:27:11 10° N
Genesis I 3.1 17:20:20 10° SSW 17:24:16 73° SE 17:25:15 48° NE
Cosmos 1869 3.3 17:26:05 10° NNW 17:29:59 79° W 17:33:55 10° S
Cosmos 1726 Rocket 4.4 17:26:15 10° NNW 17:30:27 51° W 17:34:37 10° S
IRIDIUM 106 4.3 17:26:25 10° N 17:31:40 85° W 17:36:53 10° S
ISS -0.8 17:33:53 10° W 17:35:45 14° SW 17:37:38 10° SSW
Cosmos 1745 Rocket 3.8 17:31:41 10° N 17:37:57 73° E 17:44:07 10° SSE
BREEZE-M DEB (TANK) 3.4 17:25:59 10° SW 17:40:16 70° SSE 17:41:41 47° E
Cosmos 1386 Rocket 4.3 17:35:13 10° N 17:41:16 83° E 17:47:19 10° S
Cosmos 1633 3.9 17:39:51 10° SW 17:42:58 35° WNW 17:46:01 10° N
Okean O Rocket 1.5 17:38:54 10° SSE 17:43:17 86° WSW 17:47:43 10° NNW
Cosmos 1461 3.9 17:40:57 10° WSW 17:45:05 47° NW 17:47:01 28° N
Cosmos 1844 Rocket 3.8 17:44:44 10° NW 17:50:00 44° WSW 17:55:14 10° S
CZ-4B R/B 3.8 17:49:45 10° S 17:54:58 54° W 18:00:19 10° NNW
Cosmos 1709 Rocket 3.8 17:50:20 10° N 17:56:27 65° E 17:58:24 43° SE
Lacrosse 5 rocket 1.8 17:53:05 10° NW 17:55:52 50° WNW 17:55:52 50° WNW
CZ-4 R/B 2.5 18:00:06 10° S 18:04:03 45° W 18:07:59 10° NNW
Cosmos 44 Rocket 3.5 18:06:28 10° SW 18:10:25 63° SW 18:10:25 63° SW
Cosmos 2219 Rocket 2.1 18:06:07 10° SSW 18:11:43 87° WNW 18:12:21 71° NNE
Cosmos 2360 Rocket 3.2 18:06:33 10° SW 18:11:55 44° NW 18:15:52 18° N
Cosmos 883 Rocket 4.4 18:11:42 10° S 18:17:57 88° E 18:24:20 10° N
Cosmos 2333 Rocket 2.8 18:14:30 10° SW 18:20:03 55° WNW 18:22:21 34° N
Atlas Centaur 2 4.3 18:14:24 10° SW 18:20:52 25° S 18:21:47 25° SSE
Cosmos 2278 Rocket 3.4 18:16:27 10° NNW 18:19:41 31° N 18:19:41 31° N
Cosmos 2322 Rocket 4.0 18:19:47 10° WSW 18:24:29 27° NW 18:28:47 12° N
Cosmos 1814 Rocket 4.3 18:21:35 10° NNW 18:26:08 63° NW 18:26:08 63° NW
COSMOS 2428 3.8 18:29:19 10° SSW 18:32:20 33° SSW 18:32:20 33° SSW
Lacrosse 5 3.2 18:31:33 10° W 18:35:50 33° NNW 18:35:50 33° NNW
CSL-04 Rocket 4.5 18:47:08 48° WNW 18:47:08 48° WNW 18:51:36 10° NNW
Cosmos 1943 Rocket 4.4 18:56:50 10° NNW 18:57:55 15° N 18:57:55 15° N
